#timestamp,LO_Frequency,Hit,StdDev 
1628298015.5,286047002.4,N
1628298035.4,286047001.9,N
1628298055.2,286047004.4,Y
1628298075.0,286047002.5,P
1628298075.9,286047002.5,P
1628298095.8,286047004.0,P
1628298115.4,286047000.0,N
1628298135.3,286046998.6,N
1628298155.1,286046998.7,N
1628298175.9,286047000.5,N
1628298195.4,286046998.1,N
1628298215.3,286047000.4,N
1628298235.1,286047002.3,N
1628298255.8,286047001.7,N
1628298275.7,286047004.4,N
1628298295.5,286047003.2,N
1628298315.4,286047005.9,Y
1628298335.2,286047006.0,P
1628298355.0,286047002.9,N
1628298355.9,286047002.9,N
1628298375.8,286047005.8,Y
1628298395.6,286047001.7,P
1628298415.5,286047004.0,P
1628298435.3,286047003.5,P
1628298455.1,286047003.8,Y
1628298475.9,286047002.8,P
1628298495.7,286047002.6,P
1628298515.5,286047001.7,P
1628298535.4,286047001.5,N
1628298555.2,286047002.5,Y
1628298575.1,286046998.5,P
1628298576.0,286046998.5,N
1628298595.8,286047000.2,N
1628298615.6,286046998.8,N
1628298635.5,286047000.7,N
1628298655.3,286047001.2,N
1628298675.1,286046999.5,N
1628298695.9,286047000.6,N
1628298715.7,286047000.6,N
1628298735.6,286047000.3,N
1628298755.6,286047000.6,N
1628298775.4,286047000.6,N
1628298795.2,286046999.5,N
1628298815.1,286046999.0,N
1628298816.0,286046999.0,N
1628298835.8,286047000.9,N
1628298855.7,286047000.3,N
1628298875.5,286047001.2,N
1628298895.3,286046999.6,N
1628298915.1,286046999.0,N
1628298935.8,286046996.7,Y
1628298955.7,286046997.5,P
1628298975.5,286046997.6,N
1628298995.4,286046995.8,P
1628299015.2,286046996.2,N
1628299035.0,286046995.8,N
1628299036.0,286046995.8,N
1628299055.8,286046993.9,Y
1628299075.6,286046997.9,P
1628299095.5,286046995.9,P
1628299115.3,286046994.5,P
1628299135.2,286046994.8,Y
1628299155.9,286046995.2,P
1628299175.8,286046995.7,P
1628299195.6,286046996.0,P
1628299215.4,286046993.5,Y
1628299235.3,286046997.0,P
1628299255.1,286046997.7,P
1628299275.8,286046996.6,P
1628299295.7,286046999.2,N
1628299315.5,286046998.9,N
1628299335.4,286046998.6,N
1628299355.2,286047001.2,N
1628299375.0,286046998.3,N
1628299375.9,286046998.3,N
1628299395.8,286047001.2,N
1628299415.6,286047000.5,N
1628299435.5,286047002.7,N
1628299455.3,286047002.7,N
1628299475.1,286047002.4,N
1628299495.9,286047000.7,N
1628299515.7,286047000.0,N
1628299535.5,286047000.8,N
1628299555.4,286047000.6,N
1628299575.2,286047001.0,N
1628299595.1,286047000.5,N
1628299596.0,286047000.5,N
1628299615.8,286047000.5,N
1628299635.6,286047000.3,N
1628299655.5,286047000.6,N
1628299675.3,286046999.4,N
1628299695.3,286046998.3,N
1628299715.1,286046998.5,N
1628299716.0,286046998.5,N
1628299735.8,286046998.3,N
1628299755.7,286046998.1,N
1628299775.5,286047001.1,N
1628299795.3,286047000.7,N
1628299815.2,286047000.9,N
1628299835.0,286047000.8,N
1628299835.9,286047000.8,N
1628299855.8,286046998.8,N
1628299875.6,286047000.7,N
1628299895.5,286047000.5,N
1628299915.3,286047001.2,N
1628299935.1,286047000.6,N
1628299955.9,286047000.7,N
1628299975.7,286046998.2,N
1628299995.6,286047000.7,N
1628300015.4,286046999.9,N
1628300035.2,286047002.6,N
1628300055.1,286046999.7,N
1628300056.0,286046999.7,N
1628300075.8,286047002.5,N
1628300095.7,286047002.7,N
1628300115.5,286047002.5,N
1628300135.3,286047002.0,N
1628300155.2,286047000.1,N
1628300175.9,286047000.9,N
1628300195.7,286046999.9,N
1628300215.6,286047000.7,N
1628300235.4,286046998.1,N
1628300255.2,286046998.1,N
1628300275.1,286047001.1,N
1628300276.0,286047001.1,N
1628300295.8,286047000.2,N
1628300315.7,286047001.9,N
1628300335.5,286047001.5,N
1628300355.3,286047001.9,N
1628300375.2,286047001.8,N
1628300395.0,286047002.6,N
1628300395.9,286047002.6,N
1628300415.8,286047002.1,N
1628300435.6,286047002.7,N
1628300455.4,286047002.2,N
1628300475.3,286047001.4,N
1628300495.1,286047004.3,Y
1628300515.8,286047000.1,P
1628300535.7,286047000.2,N
1628300555.7,286047000.9,N
1628300575.6,286047000.4,N
1628300595.4,286046999.9,N
1628300615.2,286046999.7,N
1628300635.1,286046999.9,N
1628300636.0,286046999.9,N
1628300655.8,286047002.8,Y
1628300675.7,286047000.7,P
1628300695.5,286047000.7,N
1628300715.3,286047000.7,P
1628300735.2,286047000.5,N
1628300755.0,286047000.9,Y
1628300755.9,286047000.9,P
1628300775.8,286047001.0,P
1628300795.6,286046999.8,N
1628300815.4,286047000.1,N
1628300835.3,286047002.8,Y
1628300855.1,286047000.4,P
1628300875.9,286047000.9,P
1628300895.7,286047000.5,N
1628300915.5,286046998.2,Y
1628300935.4,286046998.3,P
1628300955.2,286046998.4,N
1628300975.1,286046998.5,N
1628300976.0,286046998.5,N
1628300995.8,286047000.3,N
1628301015.6,286047001.0,N
1628301035.5,286046999.8,N
1628301055.3,286047000.7,N
1628301075.1,286047001.0,N
1628301095.9,286047000.5,N
1628301115.7,286047000.3,N
1628301135.6,286046998.5,N
1628301155.4,286047000.8,N
1628301175.2,286046998.7,N
1628301195.1,286046998.6,N
1628301196.0,286046998.6,N
1628301215.8,286046998.7,N
1628301235.6,286046999.1,N
1628301255.5,286046999.0,N
1628301275.3,286046999.0,N
1628301295.2,286046998.9,N
1628301315.9,286047000.6,N
1628301335.7,286047002.7,N
1628301355.6,286047001.3,N
1628301375.4,286047004.0,Y
1628301395.2,286047003.9,P
1628301415.1,286047005.2,N
1628301416.0,286047005.2,N
1628301435.8,286047007.1,Y
1628301455.7,286047004.2,P
1628301475.5,286047003.8,P
1628301495.3,286047001.8,P
1628301515.4,286047001.7,N
1628301535.2,286047001.5,N
1628301555.1,286047004.3,Y
1628301575.8,286047001.8,P
1628301595.7,286047002.4,P
